User: anonymous   Login
Location: Fort Wayne
(41.1310°N, 85.1290°W)
Time: 03:44:20
(UTC-04:00)
Language:

SR - Orbit

View from above orbital plane
View from above orbital plane
View from above satellite
View from above satellite

Ground track
Ground track

The orbit data is extracted from the following two-line orbital elements,

1 00046U 60007B   14302.90542009  .00000704  00000-0  16317-3 0  7712
2 00046 066.6915 203.1086 0219188 225.6723 132.6238 14.47933956841011
Epoch (UTC): 29 October 2014 21:43:48
Eccentricity: 0.0219188
inclination: 66.6915°
perigee height: 576 km
apogee height: 888 km
right ascension of ascending node: 203.1086°
argument of perigee: 225.6723°
revolutions per day: 14.47933956
mean anomaly at epoch: 132.6238°
orbit number at epoch: 84101

The dashed part of the orbit path shows where the satellite is in the earth's shadow,  

DLR